User: anonymous   Login
Location: Gloden
(48.4833°N, 15.3167°E)
Time: 01:40:36
(UTC+00:00)
Language:

Cosmos 44 - Orbit

View from above orbital plane
View from above orbital plane
View from above satellite
View from above satellite

Ground track
Ground track

The orbit data is extracted from the following two-line orbital elements,

1   876U 64053A   20047.44038095 -.00000077  00000-0  10260-4 0  9993
2   876  65.0616 305.2686 0121461  88.8287 272.6726 14.63750578950533
Epoch (UTC): 16 February 2020 10:34:08
Eccentricity: 0.0121461
inclination: 65.0616°
perigee height: 595 km
apogee height: 767 km
right ascension of ascending node: 305.2686°
argument of perigee: 88.8287°
revolutions per day: 14.63750578
mean anomaly at epoch: 272.6726°
orbit number at epoch: 95053

The dashed part of the orbit path shows where the satellite is in the earth's shadow,  

DLR